lat,lon,time
-35.957425,174.696981,2018-04-20 18:42:50
-35.958388,174.695386,2018-04-20 18:47:50
-35.959607,174.692951,2018-04-20 18:52:58
-35.960916,174.690606,2018-04-20 18:58:16
-35.961673,174.688373,2018-04-20 19:03:30
-35.96234,174.686138,2018-04-20 19:09:19
-35.962922,174.684099,2018-04-20 19:14:24
-35.963414,174.682027,2018-04-20 19:19:47
-35.964389,174.67977,2018-04-20 19:25:14
-35.965016,174.6777,2018-04-20 19:30:35
-35.965718,174.675566,2018-04-20 19:36:13
-35.9665,174.67383,2018-04-20 19:41:15
-35.9674,174.672936,2018-04-20 19:46:25
-35.968278,174.67051,2018-04-20 19:51:38
-35.968278,174.668935,2018-04-20 19:56:54
-35.968914,174.666868,2018-04-20 20:01:57
-35.969131,174.665265,2018-04-20 20:07:06
-35.969892,174.663736,2018-04-20 20:12:08
-35.970387,174.661728,2018-04-20 20:17:10
-35.971216,174.660098,2018-04-20 20:22:19
-35.972029,174.658143,2018-04-20 20:27:28
-35.972738,174.656473,2018-04-20 20:32:36
-35.973222,174.654553,2018-04-20 20:37:37
-35.973978,174.65261,2018-04-20 20:42:58
-35.975617,174.65163,2018-04-20 20:48:09
-35.976632,174.649256,2018-04-20 20:53:31
-35.977925,174.647567,2018-04-20 20:58:42
-35.978509,174.645881,2018-04-20 21:03:42
-35.980184,174.644083,2018-04-20 21:08:46
-35.981993,174.642547,2018-04-20 21:14:04
-35.983114,174.640424,2018-04-20 21:19:26
-35.984312,174.638705,2018-04-20 21:24:40
-35.98515,174.63692,2018-04-20 21:29:49
-35.98689,174.635374,2018-04-20 21:35:08
-35.988263,174.633661,2018-04-20 21:40:36
-35.989614,174.632756,2018-04-20 21:45:40
-35.991217,174.630719,2018-04-20 21:51:01
-35.992073,174.629514,2018-04-20 21:56:01
-35.993207,174.628426,2018-04-20 22:01:13
-35.99423,174.626571,2018-04-20 22:06:28
-35.995408,174.624738,2018-04-20 22:12:01
-35.996539,174.623484,2018-04-20 22:17:15
-35.997361,174.621684,2018-04-20 22:22:14
-35.997715,174.620023,2018-04-20 22:27:27
-35.998136,174.618658,2018-04-20 22:32:31
-35.999133,174.617017,2018-04-20 22:37:35
-36.000254,174.616067,2018-04-20 22:43:06
-36.000986,174.615035,2018-04-20 22:48:46
-36.001388,174.613584,2018-04-20 22:53:59
-36.001731,174.611647,2018-04-20 22:59:07
-36.001854,174.610046,2018-04-20 23:04:37
-36.001975,174.608596,2018-04-20 23:09:41
-36.002354,174.607125,2018-04-20 23:14:55
-36.003448,174.605629,2018-04-20 23:20:12
-36.004301,174.604017,2018-04-20 23:25:52
-36.005012,174.602612,2018-04-20 23:30:52
-36.005507,174.600801,2018-04-20 23:36:00
-36.006037,174.599408,2018-04-20 23:41:40
-36.005785,174.598623,2018-04-20 23:47:04
-36.005794,174.597131,2018-04-20 23:52:10
-36.005519,174.595067,2018-04-20 23:57:11
-36.005051,174.593759,2018-04-21 00:02:14
-36.005193,174.592002,2018-04-21 00:07:33
-36.004834,174.590645,2018-04-21 00:12:40
-36.004897,174.589096,2018-04-21 00:17:45
-36.00471,174.587157,2018-04-21 00:22:59
-36.004682,174.585748,2018-04-21 00:28:07
-36.004251,174.584772,2018-04-21 00:33:08
-36.004402,174.582893,2018-04-21 00:38:15
-36.00461,174.581723,2018-04-21 00:43:15
-36.005179,174.58085,2018-04-21 00:48:30
-36.005213,174.579129,2018-04-21 00:54:40
-36.005704,174.577121,2018-04-21 01:00:08
-36.006524,174.575473,2018-04-21 01:05:54
-36.006852,174.573626,2018-04-21 01:11:03
-36.006114,174.572676,2018-04-21 01:16:06
-36.007518,174.571343,2018-04-21 01:21:31
-36.008734,174.57061,2018-04-21 01:26:58
-36.009604,174.569126,2018-04-21 01:32:24
-36.00977,174.568253,2018-04-21 01:37:30
-36.00965,174.566955,2018-04-21 01:43:18
-36.009949,174.565555,2018-04-21 01:48:42
-36.010296,174.564362,2018-04-21 01:53:44
-36.010454,174.562411,2018-04-21 01:59:02
-36.010404,174.560772,2018-04-21 02:04:15
-36.010621,174.55862,2018-04-21 02:09:19
-36.011061,174.556831,2018-04-21 02:14:23
-36.011422,174.555231,2018-04-21 02:19:22
-36.011475,174.55362,2018-04-21 02:24:34
-36.012237,174.55188,2018-04-21 02:30:02
-36.012187,174.550262,2018-04-21 02:35:02
-36.012344,174.548528,2018-04-21 02:40:16
-36.012464,174.547476,2018-04-21 02:45:33
-36.012852,174.545739,2018-04-21 02:50:34
-36.012849,174.543711,2018-04-21 02:55:45
-36.013309,174.542268,2018-04-21 03:00:49
-36.013665,174.540218,2018-04-21 03:06:16
-36.015122,174.539144,2018-04-21 03:11:54
-36.015343,174.537062,2018-04-21 03:16:59
-36.015968,174.535832,2018-04-21 03:22:06
-36.01675,174.534453,2018-04-21 03:27:42
-36.01639,174.532967,2018-04-21 03:32:52
-36.017947,174.531903,2018-04-21 03:38:06
-36.018399,174.530229,2018-04-21 03:43:06
-36.01949,174.528983,2018-04-21 03:48:15
-36.020739,174.527108,2018-04-21 03:53:18
-36.02046,174.525258,2018-04-21 03:58:46
-36.021393,174.524437,2018-04-21 04:04:07
-36.021718,174.522223,2018-04-21 04:09:16
-36.022167,174.521458,2018-04-21 04:14:34
-36.022729,174.520183,2018-04-21 04:19:52
-36.023523,174.517492,2018-04-21 04:24:52
-36.024886,174.516282,2018-04-21 04:29:58
-36.024872,174.514569,2018-04-21 04:35:19
-36.025983,174.512663,2018-04-21 04:40:31
-36.026325,174.511897,2018-04-21 04:45:31
-36.02769,174.509341,2018-04-21 04:51:04
-36.028648,174.508487,2018-04-21 04:54:07
